owner,sensor,date,latitude,longitude,vertical_datum,sea_water_practical_salinity,qcFlag 
DISL,ioos:station:DISL:CATA:1,2016-11-01T00:00:00Z,30.3085,-88.1395,2.485,25.31,1111122 
DISL,ioos:station:DISL:CATA:1,2016-11-01T00:30:00Z,30.3085,-88.1395,2.522,25.59,1111122 
DISL,ioos:station:DISL:CATA:1,2016-11-01T01:00:00Z,30.3085,-88.1395,2.55,25.95,1111122 
DISL,ioos:station:DISL:CATA:1,2016-11-01T01:30:00Z,30.3085,-88.1395,2.574,26.13,1111122 
DISL,ioos:station:DISL:CATA:1,2016-11-01T02:00:00Z,30.3085,-88.1395,2.603,26.38,1111122 
DISL,ioos:station:DISL:CATA:1,2016-11-01T02:30:00Z,30.3085,-88.1395,2.623,26.49,1111122 
DISL,ioos:station:DISL:CATA:1,2016-11-01T03:00:00Z,30.3085,-88.1395,2.633,26.64,1111122 
DISL,ioos:station:DISL:CATA:1,2016-11-01T03:30:00Z,30.3085,-88.1395,2.625,26.89,1111122 
DISL,ioos:station:DISL:CATA:1,2016-11-01T04:00:00Z,30.3085,-88.1395,2.62,27.07,1111122 
DISL,ioos:station:DISL:CATA:1,2016-11-01T04:30:00Z,30.3085,-88.1395,2.619,27.14,1111122 
DISL,ioos:station:DISL:CATA:1,2016-11-01T05:00:00Z,30.3085,-88.1395,2.609,27.2,1111122 
DISL,ioos:station:DISL:CATA:1,2016-11-01T05:30:00Z,30.3085,-88.1395,2.596,27.12,1111122 
DISL,ioos:station:DISL:CATA:1,2016-11-01T06:00:00Z,30.3085,-88.1395,2.582,27.1,1111122 
DISL,ioos:station:DISL:CATA:1,2016-11-01T06:30:00Z,30.3085,-88.1395,2.566,27.24,1111122 
DISL,ioos:station:DISL:CATA:1,2016-11-01T07:00:00Z,30.3085,-88.1395,2.54,27.28,1111122 
DISL,ioos:station:DISL:CATA:1,2016-11-01T07:30:00Z,30.3085,-88.1395,2.511,27.28,1111122 
DISL,ioos:station:DISL:CATA:1,2016-11-01T08:00:00Z,30.3085,-88.1395,2.48,26.76,1111122 
DISL,ioos:station:DISL:CATA:1,2016-11-01T08:30:00Z,30.3085,-88.1395,2.465,24.53,1111122 
DISL,ioos:station:DISL:CATA:1,2016-11-01T09:00:00Z,30.3085,-88.1395,2.424,24.09,1111122 
DISL,ioos:station:DISL:CATA:1,2016-11-01T09:30:00Z,30.3085,-88.1395,2.389,24.41,1111122 
DISL,ioos:station:DISL:CATA:1,2016-11-01T10:00:00Z,30.3085,-88.1395,2.346,24.59,1111122 
DISL,ioos:station:DISL:CATA:1,2016-11-01T10:30:00Z,30.3085,-88.1395,2.313,24.59,1111122 
DISL,ioos:station:DISL:CATA:1,2016-11-01T11:00:00Z,30.3085,-88.1395,2.282,24.28,1111122 
DISL,ioos:station:DISL:CATA:1,2016-11-01T11:30:00Z,30.3085,-88.1395,2.248,23.97,1111122 
DISL,ioos:station:DISL:CATA:1,2016-11-01T12:00:00Z,30.3085,-88.1395,2.228,23.8,1111122 
DISL,ioos:station:DISL:CATA:1,2016-11-01T12:30:00Z,30.3085,-88.1395,2.219,24.08,1111122 
DISL,ioos:station:DISL:CATA:1,2016-11-01T13:00:00Z,30.3085,-88.1395,2.208,24.22,1111122 
DISL,ioos:station:DISL:CATA:1,2016-11-01T13:30:00Z,30.3085,-88.1395,2.205,24.33,1111122 
DISL,ioos:station:DISL:CATA:1,2016-11-01T14:00:00Z,30.3085,-88.1395,2.215,24.38,1111122 
DISL,ioos:station:DISL:CATA:1,2016-11-01T14:30:00Z,30.3085,-88.1395,2.23,24.34,1111122 
DISL,ioos:station:DISL:CATA:1,2016-11-01T15:00:00Z,30.3085,-88.1395,2.239,24.31,1111122 
DISL,ioos:station:DISL:CATA:1,2016-11-01T15:30:00Z,30.3085,-88.1395,2.244,24.31,1111122 
DISL,ioos:station:DISL:CATA:1,2016-11-01T16:00:00Z,30.3085,-88.1395,2.245,24.33,1111122 
DISL,ioos:station:DISL:CATA:1,2016-11-01T16:30:00Z,30.3085,-88.1395,2.249,24.29,1111122 
DISL,ioos:station:DISL:CATA:1,2016-11-01T17:00:00Z,30.3085,-88.1395,2.263,24.23,1111122 
DISL,ioos:station:DISL:CATA:1,2016-11-01T17:30:00Z,30.3085,-88.1395,2.275,24.1,1111122 
DISL,ioos:station:DISL:CATA:1,2016-11-01T18:00:00Z,30.3085,-88.1395,2.286,24.09,1111122 
DISL,ioos:station:DISL:CATA:1,2016-11-01T18:30:00Z,30.3085,-88.1395,2.296,24.01,1111122 
DISL,ioos:station:DISL:CATA:1,2016-11-01T19:00:00Z,30.3085,-88.1395,2.304,23.96,1111122 
DISL,ioos:station:DISL:CATA:1,2016-11-01T19:30:00Z,30.3085,-88.1395,2.322,23.93,1111122 
DISL,ioos:station:DISL:CATA:1,2016-11-01T20:00:00Z,30.3085,-88.1395,2.335,23.87,1111122 
DISL,ioos:station:DISL:CATA:1,2016-11-01T20:30:00Z,30.3085,-88.1395,2.351,23.88,1111122 
DISL,ioos:station:DISL:CATA:1,2016-11-01T21:00:00Z,30.3085,-88.1395,2.377,23.94,1111122 
DISL,ioos:station:DISL:CATA:1,2016-11-01T21:30:00Z,30.3085,-88.1395,2.394,24.05,1111122 
DISL,ioos:station:DISL:CATA:1,2016-11-01T22:00:00Z,30.3085,-88.1395,2.419,24.11,1111122 
DISL,ioos:station:DISL:CATA:1,2016-11-01T22:30:00Z,30.3085,-88.1395,2.437,24.16,1111122 
DISL,ioos:station:DISL:CATA:1,2016-11-01T23:00:00Z,30.3085,-88.1395,2.462,24.14,1111122 
DISL,ioos:station:DISL:CATA:1,2016-11-01T23:30:00Z,30.3085,-88.1395,2.48,24.1,1111122 
DISL,ioos:station:DISL:CATA:1,2016-11-02T00:00:00Z,30.3085,-88.1395,2.519,24.07,1111122 
DISL,ioos:station:DISL:CATA:1,2016-11-02T00:30:00Z,30.3085,-88.1395,2.553,24.07,1111122 
DISL,ioos:station:DISL:CATA:1,2016-11-02T01:00:00Z,30.3085,-88.1395,2.581,24.02,1111122 
DISL,ioos:station:DISL:CATA:1,2016-11-02T01:30:00Z,30.3085,-88.1395,2.604,24.0,1111122 
DISL,ioos:station:DISL:CATA:1,2016-11-02T02:00:00Z,30.3085,-88.1395,2.643,24.03,1111122 
DISL,ioos:station:DISL:CATA:1,2016-11-02T02:30:00Z,30.3085,-88.1395,2.674,24.1,1111122 
DISL,ioos:station:DISL:CATA:1,2016-11-02T03:00:00Z,30.3085,-88.1395,2.691,24.17,1111122 
DISL,ioos:station:DISL:CATA:1,2016-11-02T03:30:00Z,30.3085,-88.1395,2.708,24.21,1111122 
DISL,ioos:station:DISL:CATA:1,2016-11-02T04:00:00Z,30.3085,-88.1395,2.727,24.36,1111122 
DISL,ioos:station:DISL:CATA:1,2016-11-02T04:30:00Z,30.3085,-88.1395,2.73,24.43,1111122 
DISL,ioos:station:DISL:CATA:1,2016-11-02T05:00:00Z,30.3085,-88.1395,2.726,24.47,1111122 
DISL,ioos:station:DISL:CATA:1,2016-11-02T05:30:00Z,30.3085,-88.1395,2.715,24.48,1111122 
DISL,ioos:station:DISL:CATA:1,2016-11-02T06:00:00Z,30.3085,-88.1395,2.706,24.5,1111122 
DISL,ioos:station:DISL:CATA:1,2016-11-02T06:30:00Z,30.3085,-88.1395,2.689,24.39,1111122 
DISL,ioos:station:DISL:CATA:1,2016-11-02T07:00:00Z,30.3085,-88.1395,2.67,24.19,1111122 
DISL,ioos:station:DISL:CATA:1,2016-11-02T07:30:00Z,30.3085,-88.1395,2.643,24.01,1111122 
DISL,ioos:station:DISL:CATA:1,2016-11-02T08:00:00Z,30.3085,-88.1395,2.616,23.9,1111122 
DISL,ioos:station:DISL:CATA:1,2016-11-02T08:30:00Z,30.3085,-88.1395,2.596,23.91,1111122 
DISL,ioos:station:DISL:CATA:1,2016-11-02T09:00:00Z,30.3085,-88.1395,2.56,23.94,1111122 
DISL,ioos:station:DISL:CATA:1,2016-11-02T09:30:00Z,30.3085,-88.1395,2.533,23.87,1111122 
DISL,ioos:station:DISL:CATA:1,2016-11-02T10:00:00Z,30.3085,-88.1395,2.495,23.81,1111122 
DISL,ioos:station:DISL:CATA:1,2016-11-02T10:30:00Z,30.3085,-88.1395,2.467,23.83,1111122 
DISL,ioos:station:DISL:CATA:1,2016-11-02T11:00:00Z,30.3085,-88.1395,2.423,23.81,1111122 
DISL,ioos:station:DISL:CATA:1,2016-11-02T11:30:00Z,30.3085,-88.1395,2.376,23.76,1111122 
DISL,ioos:station:DISL:CATA:1,2016-11-02T12:00:00Z,30.3085,-88.1395,2.338,23.69,1111122 
DISL,ioos:station:DISL:CATA:1,2016-11-02T12:30:00Z,30.3085,-88.1395,2.308,23.66,1111122 
DISL,ioos:station:DISL:CATA:1,2016-11-02T13:00:00Z,30.3085,-88.1395,2.296,23.69,1111122 
DISL,ioos:station:DISL:CATA:1,2016-11-02T13:30:00Z,30.3085,-88.1395,2.286,23.61,1111122 
DISL,ioos:station:DISL:CATA:1,2016-11-02T14:00:00Z,30.3085,-88.1395,2.272,23.65,1111122 
DISL,ioos:station:DISL:CATA:1,2016-11-02T14:30:00Z,30.3085,-88.1395,2.283,23.64,1111122 
DISL,ioos:station:DISL:CATA:1,2016-11-02T15:00:00Z,30.3085,-88.1395,2.287,23.69,1111122 
DISL,ioos:station:DISL:CATA:1,2016-11-02T15:30:00Z,30.3085,-88.1395,2.294,23.93,1111122 
DISL,ioos:station:DISL:CATA:1,2016-11-02T16:00:00Z,30.3085,-88.1395,2.285,24.17,1111122 
DISL,ioos:station:DISL:CATA:1,2016-11-02T16:30:00Z,30.3085,-88.1395,2.308,24.18,1111122 
DISL,ioos:station:DISL:CATA:1,2016-11-02T17:00:00Z,30.3085,-88.1395,2.308,24.35,1111122 
DISL,ioos:station:DISL:CATA:1,2016-11-02T17:30:00Z,30.3085,-88.1395,2.299,24.51,1111122 
DISL,ioos:station:DISL:CATA:1,2016-11-02T18:00:00Z,30.3085,-88.1395,2.311,24.61,1111122 
DISL,ioos:station:DISL:CATA:1,2016-11-02T18:30:00Z,30.3085,-88.1395,2.322,24.75,1111122 
DISL,ioos:station:DISL:CATA:1,2016-11-02T19:00:00Z,30.3085,-88.1395,2.335,25.05,1111122 
DISL,ioos:station:DISL:CATA:1,2016-11-02T19:30:00Z,30.3085,-88.1395,2.346,25.23,1111122 
DISL,ioos:station:DISL:CATA:1,2016-11-02T20:00:00Z,30.3085,-88.1395,2.352,25.56,1111122 
DISL,ioos:station:DISL:CATA:1,2016-11-02T20:30:00Z,30.3085,-88.1395,2.377,25.81,1111122 
DISL,ioos:station:DISL:CATA:1,2016-11-02T21:00:00Z,30.3085,-88.1395,2.407,25.9,1111122 
DISL,ioos:station:DISL:CATA:1,2016-11-02T21:30:00Z,30.3085,-88.1395,2.433,26.15,1111122 
DISL,ioos:station:DISL:CATA:1,2016-11-02T22:00:00Z,30.3085,-88.1395,2.44,26.19,1111122 
DISL,ioos:station:DISL:CATA:1,2016-11-02T22:30:00Z,30.3085,-88.1395,2.455,26.03,1111122 
DISL,ioos:station:DISL:CATA:1,2016-11-02T23:00:00Z,30.3085,-88.1395,2.475,26.02,1111122 
DISL,ioos:station:DISL:CATA:1,2016-11-02T23:30:00Z,30.3085,-88.1395,2.491,26.19,1111122 
DISL,ioos:station:DISL:CATA:1,2016-11-03T00:00:00Z,30.3085,-88.1395,2.506,26.2,1111122 
DISL,ioos:station:DISL:CATA:1,2016-11-03T00:30:00Z,30.3085,-88.1395,2.526,26.17,1111122 
DISL,ioos:station:DISL:CATA:1,2016-11-03T01:00:00Z,30.3085,-88.1395,2.546,26.31,1111122 
DISL,ioos:station:DISL:CATA:1,2016-11-03T01:30:00Z,30.3085,-88.1395,2.566,26.59,1111122 
DISL,ioos:station:DISL:CATA:1,2016-11-03T02:00:00Z,30.3085,-88.1395,2.603,26.64,1111122 
DISL,ioos:station:DISL:CATA:1,2016-11-03T02:30:00Z,30.3085,-88.1395,2.632,26.69,1111122 
DISL,ioos:station:DISL:CATA:1,2016-11-03T03:00:00Z,30.3085,-88.1395,2.651,26.53,1111122 
DISL,ioos:station:DISL:CATA:1,2016-11-03T03:30:00Z,30.3085,-88.1395,2.671,26.18,1111122 
DISL,ioos:station:DISL:CATA:1,2016-11-03T04:00:00Z,30.3085,-88.1395,2.688,25.94,1111122 
DISL,ioos:station:DISL:CATA:1,2016-11-03T04:30:00Z,30.3085,-88.1395,2.692,25.54,1111122 
DISL,ioos:station:DISL:CATA:1,2016-11-03T05:00:00Z,30.3085,-88.1395,2.695,25.4,1111122 
DISL,ioos:station:DISL:CATA:1,2016-11-03T05:30:00Z,30.3085,-88.1395,2.694,25.13,1111122 
DISL,ioos:station:DISL:CATA:1,2016-11-03T06:00:00Z,30.3085,-88.1395,2.676,25.01,1111122 
DISL,ioos:station:DISL:CATA:1,2016-11-03T06:30:00Z,30.3085,-88.1395,2.654,25.6,1111122 
DISL,ioos:station:DISL:CATA:1,2016-11-03T07:00:00Z,30.3085,-88.1395,2.645,25.8,1111122 
DISL,ioos:station:DISL:CATA:1,2016-11-03T07:30:00Z,30.3085,-88.1395,2.63,26.0,1111122 
DISL,ioos:station:DISL:CATA:1,2016-11-03T08:00:00Z,30.3085,-88.1395,2.605,25.5,1111122 
DISL,ioos:station:DISL:CATA:1,2016-11-03T08:30:00Z,30.3085,-88.1395,2.579,25.02,1111122 
DISL,ioos:station:DISL:CATA:1,2016-11-03T09:00:00Z,30.3085,-88.1395,2.556,26.26,1111122 
DISL,ioos:station:DISL:CATA:1,2016-11-03T09:30:00Z,30.3085,-88.1395,2.514,26.89,1111122 
DISL,ioos:station:DISL:CATA:1,2016-11-03T10:00:00Z,30.3085,-88.1395,2.472,26.87,1111122 
DISL,ioos:station:DISL:CATA:1,2016-11-03T10:30:00Z,30.3085,-88.1395,2.432,26.06,1111122 
DISL,ioos:station:DISL:CATA:1,2016-11-03T11:00:00Z,30.3085,-88.1395,2.401,25.52,1111122 
DISL,ioos:station:DISL:CATA:1,2016-11-03T11:30:00Z,30.3085,-88.1395,2.367,24.97,1111122 
DISL,ioos:station:DISL:CATA:1,2016-11-03T12:00:00Z,30.3085,-88.1395,2.342,24.93,1111122 
DISL,ioos:station:DISL:CATA:1,2016-11-03T12:30:00Z,30.3085,-88.1395,2.315,24.6,1111122 
DISL,ioos:station:DISL:CATA:1,2016-11-03T13:00:00Z,30.3085,-88.1395,2.305,24.66,1111122 
DISL,ioos:station:DISL:CATA:1,2016-11-03T13:30:00Z,30.3085,-88.1395,2.265,25.15,1111122 
DISL,ioos:station:DISL:CATA:1,2016-11-03T14:00:00Z,30.3085,-88.1395,2.241,25.52,1111122 
DISL,ioos:station:DISL:CATA:1,2016-11-03T14:30:00Z,30.3085,-88.1395,2.245,25.3,1111122 
DISL,ioos:station:DISL:CATA:1,2016-11-03T15:00:00Z,30.3085,-88.1395,2.237,25.05,1111122 
DISL,ioos:station:DISL:CATA:1,2016-11-03T15:30:00Z,30.3085,-88.1395,2.233,24.99,1111122 
DISL,ioos:station:DISL:CATA:1,2016-11-03T16:00:00Z,30.3085,-88.1395,2.24,25.11,1111122 
DISL,ioos:station:DISL:CATA:1,2016-11-03T16:30:00Z,30.3085,-88.1395,2.24,24.98,1111122 
DISL,ioos:station:DISL:CATA:1,2016-11-03T17:00:00Z,30.3085,-88.1395,2.245,25.01,1111122 
DISL,ioos:station:DISL:CATA:1,2016-11-03T17:30:00Z,30.3085,-88.1395,2.243,25.11,1111122 
DISL,ioos:station:DISL:CATA:1,2016-11-03T18:00:00Z,30.3085,-88.1395,2.249,25.2,1111122 
DISL,ioos:station:DISL:CATA:1,2016-11-03T18:30:00Z,30.3085,-88.1395,2.268,25.19,1111122 
DISL,ioos:station:DISL:CATA:1,2016-11-03T19:00:00Z,30.3085,-88.1395,2.284,25.22,1111122 
DISL,ioos:station:DISL:CATA:1,2016-11-03T19:30:00Z,30.3085,-88.1395,2.288,25.21,1111122 
DISL,ioos:station:DISL:CATA:1,2016-11-03T20:00:00Z,30.3085,-88.1395,2.275,25.13,1111122 
DISL,ioos:station:DISL:CATA:1,2016-11-03T20:30:00Z,30.3085,-88.1395,2.299,25.15,1111122 
DISL,ioos:station:DISL:CATA:1,2016-11-03T21:00:00Z,30.3085,-88.1395,2.309,25.21,1111122 
DISL,ioos:station:DISL:CATA:1,2016-11-03T21:30:00Z,30.3085,-88.1395,2.32,25.23,1111122 
DISL,ioos:station:DISL:CATA:1,2016-11-03T22:00:00Z,30.3085,-88.1395,2.348,25.24,1111122 
DISL,ioos:station:DISL:CATA:1,2016-11-03T22:30:00Z,30.3085,-88.1395,2.384,25.17,1111122 
DISL,ioos:station:DISL:CATA:1,2016-11-03T23:00:00Z,30.3085,-88.1395,2.426,24.77,1111122 
DISL,ioos:station:DISL:CATA:1,2016-11-03T23:30:00Z,30.3085,-88.1395,2.452,24.57,1111122 
DISL,ioos:station:DISL:CATA:1,2016-11-04T00:00:00Z,30.3085,-88.1395,2.475,24.52,1111122 
DISL,ioos:station:DISL:CATA:1,2016-11-04T00:30:00Z,30.3085,-88.1395,2.499,24.45,1111122 
DISL,ioos:station:DISL:CATA:1,2016-11-04T01:00:00Z,30.3085,-88.1395,2.524,24.58,1111122 
DISL,ioos:station:DISL:CATA:1,2016-11-04T01:30:00Z,30.3085,-88.1395,2.554,24.92,1111122 
DISL,ioos:station:DISL:CATA:1,2016-11-04T02:00:00Z,30.3085,-88.1395,2.583,25.04,1111122 
DISL,ioos:station:DISL:CATA:1,2016-11-04T02:30:00Z,30.3085,-88.1395,2.614,25.09,1111122 
DISL,ioos:station:DISL:CATA:1,2016-11-04T03:00:00Z,30.3085,-88.1395,2.625,25.03,1111122 
DISL,ioos:station:DISL:CATA:1,2016-11-04T03:30:00Z,30.3085,-88.1395,2.64,25.08,1111122 
DISL,ioos:station:DISL:CATA:1,2016-11-04T04:00:00Z,30.3085,-88.1395,2.655,25.14,1111122 
DISL,ioos:station:DISL:CATA:1,2016-11-04T04:30:00Z,30.3085,-88.1395,2.662,25.04,1111122 
DISL,ioos:station:DISL:CATA:1,2016-11-04T05:00:00Z,30.3085,-88.1395,2.661,25.03,1111122 
DISL,ioos:station:DISL:CATA:1,2016-11-04T05:30:00Z,30.3085,-88.1395,2.661,25.07,1111122 
DISL,ioos:station:DISL:CATA:1,2016-11-04T06:00:00Z,30.3085,-88.1395,2.663,25.16,1111122 
DISL,ioos:station:DISL:CATA:1,2016-11-04T06:30:00Z,30.3085,-88.1395,2.652,24.84,1111122 
DISL,ioos:station:DISL:CATA:1,2016-11-04T07:00:00Z,30.3085,-88.1395,2.621,24.73,1111122 
DISL,ioos:station:DISL:CATA:1,2016-11-04T07:30:00Z,30.3085,-88.1395,2.597,25.13,1111122 
DISL,ioos:station:DISL:CATA:1,2016-11-04T08:00:00Z,30.3085,-88.1395,2.595,25.87,1111122 
DISL,ioos:station:DISL:CATA:1,2016-11-04T08:30:00Z,30.3085,-88.1395,2.575,26.12,1111122 
DISL,ioos:station:DISL:CATA:1,2016-11-04T09:00:00Z,30.3085,-88.1395,2.535,26.22,1111122 
DISL,ioos:station:DISL:CATA:1,2016-11-04T09:30:00Z,30.3085,-88.1395,2.502,26.14,1111122 
DISL,ioos:station:DISL:CATA:1,2016-11-04T10:00:00Z,30.3085,-88.1395,2.462,25.6,1111122 
DISL,ioos:station:DISL:CATA:1,2016-11-04T10:30:00Z,30.3085,-88.1395,2.428,26.93,1111122 
DISL,ioos:station:DISL:CATA:1,2016-11-04T11:00:00Z,30.3085,-88.1395,2.394,27.2,1111122 
DISL,ioos:station:DISL:CATA:1,2016-11-04T11:30:00Z,30.3085,-88.1395,2.363,27.27,1111122 
DISL,ioos:station:DISL:CATA:1,2016-11-04T12:00:00Z,30.3085,-88.1395,2.329,27.57,1111122 
DISL,ioos:station:DISL:CATA:1,2016-11-04T12:30:00Z,30.3085,-88.1395,2.301,27.62,1111122 
DISL,ioos:station:DISL:CATA:1,2016-11-04T13:00:00Z,30.3085,-88.1395,2.273,27.78,1111122 
DISL,ioos:station:DISL:CATA:1,2016-11-04T13:30:00Z,30.3085,-88.1395,2.236,27.97,1111122 
DISL,ioos:station:DISL:CATA:1,2016-11-04T14:00:00Z,30.3085,-88.1395,2.198,27.88,1111122 
DISL,ioos:station:DISL:CATA:1,2016-11-04T14:30:00Z,30.3085,-88.1395,2.163,27.84,1111122 
DISL,ioos:station:DISL:CATA:1,2016-11-04T15:00:00Z,30.3085,-88.1395,2.127,28.02,1111122 
DISL,ioos:station:DISL:CATA:1,2016-11-04T15:30:00Z,30.3085,-88.1395,2.131,28.24,1111122 
DISL,ioos:station:DISL:CATA:1,2016-11-04T16:00:00Z,30.3085,-88.1395,2.122,28.13,1111122 
DISL,ioos:station:DISL:CATA:1,2016-11-04T16:30:00Z,30.3085,-88.1395,2.115,27.89,1111122 
DISL,ioos:station:DISL:CATA:1,2016-11-04T17:00:00Z,30.3085,-88.1395,2.108,27.54,1111122 
DISL,ioos:station:DISL:CATA:1,2016-11-04T17:30:00Z,30.3085,-88.1395,2.104,27.52,1111122 
DISL,ioos:station:DISL:CATA:1,2016-11-04T18:00:00Z,30.3085,-88.1395,2.124,27.42,1111122 
DISL,ioos:station:DISL:CATA:1,2016-11-04T18:30:00Z,30.3085,-88.1395,2.146,27.3,1111122 
DISL,ioos:station:DISL:CATA:1,2016-11-04T19:00:00Z,30.3085,-88.1395,2.16,27.1,1111122 
DISL,ioos:station:DISL:CATA:1,2016-11-04T19:30:00Z,30.3085,-88.1395,2.181,27.14,1111122 
DISL,ioos:station:DISL:CATA:1,2016-11-04T20:00:00Z,30.3085,-88.1395,2.2,27.36,1111122 
DISL,ioos:station:DISL:CATA:1,2016-11-04T20:30:00Z,30.3085,-88.1395,2.19,27.6,1111122 
DISL,ioos:station:DISL:CATA:1,2016-11-04T21:00:00Z,30.3085,-88.1395,2.198,27.63,1111122 
DISL,ioos:station:DISL:CATA:1,2016-11-04T21:30:00Z,30.3085,-88.1395,2.213,27.69,1111122 
DISL,ioos:station:DISL:CATA:1,2016-11-04T22:00:00Z,30.3085,-88.1395,2.238,27.29,1111122 
DISL,ioos:station:DISL:CATA:1,2016-11-04T22:30:00Z,30.3085,-88.1395,2.272,26.13,1111122 
DISL,ioos:station:DISL:CATA:1,2016-11-04T23:00:00Z,30.3085,-88.1395,2.292,25.63,1111122 
DISL,ioos:station:DISL:CATA:1,2016-11-04T23:30:00Z,30.3085,-88.1395,2.331,25.53,1111122 
DISL,ioos:station:DISL:CATA:1,2016-11-05T00:00:00Z,30.3085,-88.1395,2.359,25.56,1111122 
DISL,ioos:station:DISL:CATA:1,2016-11-05T00:30:00Z,30.3085,-88.1395,2.382,25.53,1111122 
DISL,ioos:station:DISL:CATA:1,2016-11-05T01:00:00Z,30.3085,-88.1395,2.404,25.41,1111122 
DISL,ioos:station:DISL:CATA:1,2016-11-05T01:30:00Z,30.3085,-88.1395,2.411,25.54,1111122 
DISL,ioos:station:DISL:CATA:1,2016-11-05T02:00:00Z,30.3085,-88.1395,2.445,25.65,1111122 
DISL,ioos:station:DISL:CATA:1,2016-11-05T02:30:00Z,30.3085,-88.1395,2.492,25.58,1111122 
DISL,ioos:station:DISL:CATA:1,2016-11-05T03:00:00Z,30.3085,-88.1395,2.499,25.6,1111122 
DISL,ioos:station:DISL:CATA:1,2016-11-05T03:30:00Z,30.3085,-88.1395,2.516,25.6,1111122 
DISL,ioos:station:DISL:CATA:1,2016-11-05T04:00:00Z,30.3085,-88.1395,2.545,25.63,1111122 
DISL,ioos:station:DISL:CATA:1,2016-11-05T04:30:00Z,30.3085,-88.1395,2.55,26.05,1111122 
DISL,ioos:station:DISL:CATA:1,2016-11-05T05:00:00Z,30.3085,-88.1395,2.538,26.08,1111122 
DISL,ioos:station:DISL:CATA:1,2016-11-05T05:30:00Z,30.3085,-88.1395,2.537,26.0,1111122 
DISL,ioos:station:DISL:CATA:1,2016-11-05T06:00:00Z,30.3085,-88.1395,2.528,25.9,1111122 
DISL,ioos:station:DISL:CATA:1,2016-11-05T06:30:00Z,30.3085,-88.1395,2.533,25.74,1111122 
DISL,ioos:station:DISL:CATA:1,2016-11-05T07:00:00Z,30.3085,-88.1395,2.509,26.92,1111122 
DISL,ioos:station:DISL:CATA:1,2016-11-05T07:30:00Z,30.3085,-88.1395,2.501,26.92,1111122 
DISL,ioos:station:DISL:CATA:1,2016-11-05T08:00:00Z,30.3085,-88.1395,2.5,26.63,1111122 
DISL,ioos:station:DISL:CATA:1,2016-11-05T08:30:00Z,30.3085,-88.1395,2.499,26.67,1111122 
DISL,ioos:station:DISL:CATA:1,2016-11-05T09:00:00Z,30.3085,-88.1395,2.498,26.75,1111122 
DISL,ioos:station:DISL:CATA:1,2016-11-05T09:30:00Z,30.3085,-88.1395,2.513,26.68,1111122 
DISL,ioos:station:DISL:CATA:1,2016-11-05T10:00:00Z,30.3085,-88.1395,2.508,26.54,1111122 
DISL,ioos:station:DISL:CATA:1,2016-11-05T10:30:00Z,30.3085,-88.1395,2.494,26.46,1111122 
DISL,ioos:station:DISL:CATA:1,2016-11-05T11:00:00Z,30.3085,-88.1395,2.469,26.48,1111122 
DISL,ioos:station:DISL:CATA:1,2016-11-05T11:30:00Z,30.3085,-88.1395,2.427,26.33,1111122 
DISL,ioos:station:DISL:CATA:1,2016-11-05T12:00:00Z,30.3085,-88.1395,2.383,26.23,1111122 
DISL,ioos:station:DISL:CATA:1,2016-11-05T12:30:00Z,30.3085,-88.1395,2.346,26.05,1111122 
DISL,ioos:station:DISL:CATA:1,2016-11-05T13:00:00Z,30.3085,-88.1395,2.329,25.6,1111122 
DISL,ioos:station:DISL:CATA:1,2016-11-05T13:30:00Z,30.3085,-88.1395,2.294,25.26,1111122 
DISL,ioos:station:DISL:CATA:1,2016-11-05T14:00:00Z,30.3085,-88.1395,2.275,25.06,1111122 
DISL,ioos:station:DISL:CATA:1,2016-11-05T14:30:00Z,30.3085,-88.1395,2.254,25.19,1111122 
DISL,ioos:station:DISL:CATA:1,2016-11-05T15:00:00Z,30.3085,-88.1395,2.265,25.19,1111122 
DISL,ioos:station:DISL:CATA:1,2016-11-05T15:30:00Z,30.3085,-88.1395,2.293,25.18,1111122 
DISL,ioos:station:DISL:CATA:1,2016-11-05T16:00:00Z,30.3085,-88.1395,2.283,25.41,1111122 
DISL,ioos:station:DISL:CATA:1,2016-11-05T16:30:00Z,30.3085,-88.1395,2.277,25.49,1111122 
DISL,ioos:station:DISL:CATA:1,2016-11-05T17:00:00Z,30.3085,-88.1395,2.252,25.29,1111122 
DISL,ioos:station:DISL:CATA:1,2016-11-05T17:30:00Z,30.3085,-88.1395,2.228,25.46,1111122 
DISL,ioos:station:DISL:CATA:1,2016-11-05T18:00:00Z,30.3085,-88.1395,2.21,25.53,1111122 
DISL,ioos:station:DISL:CATA:1,2016-11-05T18:30:00Z,30.3085,-88.1395,2.215,25.52,1111122 
DISL,ioos:station:DISL:CATA:1,2016-11-05T19:00:00Z,30.3085,-88.1395,2.225,25.55,1111122 
DISL,ioos:station:DISL:CATA:1,2016-11-05T19:30:00Z,30.3085,-88.1395,2.245,25.67,1111122 
DISL,ioos:station:DISL:CATA:1,2016-11-05T20:00:00Z,30.3085,-88.1395,2.251,25.73,1111122 
DISL,ioos:station:DISL:CATA:1,2016-11-05T20:30:00Z,30.3085,-88.1395,2.269,25.8,1111122 
DISL,ioos:station:DISL:CATA:1,2016-11-05T21:00:00Z,30.3085,-88.1395,2.28,25.86,1111122 
DISL,ioos:station:DISL:CATA:1,2016-11-05T21:30:00Z,30.3085,-88.1395,2.304,25.95,1111122 
DISL,ioos:station:DISL:CATA:1,2016-11-05T22:00:00Z,30.3085,-88.1395,2.324,26.04,1111122 
DISL,ioos:station:DISL:CATA:1,2016-11-05T22:30:00Z,30.3085,-88.1395,2.361,26.11,1111122 
DISL,ioos:station:DISL:CATA:1,2016-11-05T23:00:00Z,30.3085,-88.1395,2.387,26.41,1111122 
DISL,ioos:station:DISL:CATA:1,2016-11-05T23:30:00Z,30.3085,-88.1395,2.403,26.37,1111122 
DISL,ioos:station:DISL:CATA:1,2016-11-06T00:00:00Z,30.3085,-88.1395,2.43,26.35,1111122 
DISL,ioos:station:DISL:CATA:1,2016-11-06T00:30:00Z,30.3085,-88.1395,2.442,26.36,1111122 
DISL,ioos:station:DISL:CATA:1,2016-11-06T01:00:00Z,30.3085,-88.1395,2.47,26.4,1111122 
DISL,ioos:station:DISL:CATA:1,2016-11-06T01:30:00Z,30.3085,-88.1395,2.501,26.24,1111122 
DISL,ioos:station:DISL:CATA:1,2016-11-06T02:00:00Z,30.3085,-88.1395,2.517,26.28,1111122 
DISL,ioos:station:DISL:CATA:1,2016-11-06T02:30:00Z,30.3085,-88.1395,2.559,26.31,1111122 
DISL,ioos:station:DISL:CATA:1,2016-11-06T03:00:00Z,30.3085,-88.1395,2.584,26.3,1111122 
DISL,ioos:station:DISL:CATA:1,2016-11-06T03:30:00Z,30.3085,-88.1395,2.605,26.34,1111122 
DISL,ioos:station:DISL:CATA:1,2016-11-06T04:00:00Z,30.3085,-88.1395,2.634,26.33,1111122 
DISL,ioos:station:DISL:CATA:1,2016-11-06T04:30:00Z,30.3085,-88.1395,2.651,26.31,1111122 
DISL,ioos:station:DISL:CATA:1,2016-11-06T05:00:00Z,30.3085,-88.1395,2.67,26.3,1111122 
DISL,ioos:station:DISL:CATA:1,2016-11-06T05:30:00Z,30.3085,-88.1395,2.672,26.27,1111122 
DISL,ioos:station:DISL:CATA:1,2016-11-06T06:00:00Z,30.3085,-88.1395,2.683,26.25,1111122 
DISL,ioos:station:DISL:CATA:1,2016-11-06T06:30:00Z,30.3085,-88.1395,2.692,26.18,1111122 
DISL,ioos:station:DISL:CATA:1,2016-11-06T07:00:00Z,30.3085,-88.1395,2.688,25.95,1111122 
DISL,ioos:station:DISL:CATA:1,2016-11-06T07:30:00Z,30.3085,-88.1395,2.677,25.95,1111122 
DISL,ioos:station:DISL:CATA:1,2016-11-06T08:00:00Z,30.3085,-88.1395,2.679,25.55,1111122 
DISL,ioos:station:DISL:CATA:1,2016-11-06T08:30:00Z,30.3085,-88.1395,2.671,25.5,1111122 
DISL,ioos:station:DISL:CATA:1,2016-11-06T09:00:00Z,30.3085,-88.1395,2.638,25.82,1111122 
DISL,ioos:station:DISL:CATA:1,2016-11-06T09:30:00Z,30.3085,-88.1395,2.6,25.92,1111122 
DISL,ioos:station:DISL:CATA:1,2016-11-06T10:00:00Z,30.3085,-88.1395,2.572,26.03,1111122 
DISL,ioos:station:DISL:CATA:1,2016-11-06T10:30:00Z,30.3085,-88.1395,2.541,26.56,1111122 
DISL,ioos:station:DISL:CATA:1,2016-11-06T11:00:00Z,30.3085,-88.1395,2.516,26.79,1111122 
DISL,ioos:station:DISL:CATA:1,2016-11-06T11:30:00Z,30.3085,-88.1395,2.486,26.98,1111122 
DISL,ioos:station:DISL:CATA:1,2016-11-06T12:00:00Z,30.3085,-88.1395,2.457,26.71,1111122 
DISL,ioos:station:DISL:CATA:1,2016-11-06T12:30:00Z,30.3085,-88.1395,2.417,26.85,1111122 
DISL,ioos:station:DISL:CATA:1,2016-11-06T13:00:00Z,30.3085,-88.1395,2.386,26.84,1111122 
DISL,ioos:station:DISL:CATA:1,2016-11-06T13:30:00Z,30.3085,-88.1395,2.344,26.82,1111122 
DISL,ioos:station:DISL:CATA:1,2016-11-06T14:00:00Z,30.3085,-88.1395,2.33,26.84,1111122 